Regional Weather Roundup
Issued by NWS

Home | Current Version | Previous Version | Graphics & Text | Print | Product List | Glossary On
Versions: 1 2 3 4 5 6 7 8 9 10 11 12 13 14 15 16 17 18 19 20 21 22 23 24 25 26 27 28 29 30 31 32 33 34 35 36 37 38 39 40 41 42 43 44 45 46 47 48 49 50
000
ASUS43 KLSX 031759
RWRMO

WEATHER SUMMARY FOR MISSOURI
NATIONAL WEATHER SERVICE SPRINGFIELD MO
100 PM CDT FRI JUL 03 2015

NOTE: "FAIR" INDICATES FEW OR NO CLOUDS BELOW 12,000 FEET WITH NO
       SIGNIFICANT WEATHER AND/OR OBSTRUCTIONS TO VISIBILITY.
       CURRENT SKY AND/OR WEATHER CONDITIONS ARE NOT AVAILABLE FOR
       CHILLICOTHE AND FARMINGTON.

MOZ001>031-035>038-043-044-053-054-031900-
...NORTHERN AND WESTERN MISSOURI...

CITY           SKY/WX    TMP DP  RH WIND       PRES   REMARKS
KANSAS CTY INT MOSUNNY   76  56  49 N9        29.98S
6HR MIN TEMP:  65; 6HR MAX TEMP:  76;

KANSAS C DTWN  SUNNY     80  59  48 N7        29.96S
6HR MIN TEMP:  67; 6HR MAX TEMP:  80;

LEE`S SUMMIT   MOSUNNY   77  63  61 NE7       29.97F
6HR MIN TEMP:  66; 6HR MAX TEMP:  77;

ST JOSEPH      SUNNY     76  56  49 E7        29.99S
6HR MIN TEMP:  64; 6HR MAX TEMP:  77;

CHILLICOTHE      N/A     77  60  55 N7        29.99S
6HR MIN TEMP:  63; 6HR MAX TEMP:  78;

KIRKSVILLE     MOSUNNY   76  57  51 NE8       30.00R
6HR MIN TEMP:  62; 6HR MAX TEMP:  76; 6HR PCP:  0.01;


$$
MOZ066>068-077>081-088>096-101>105-031900-
...SOUTHWEST MISSOURI...

CITY           SKY/WX    TMP DP  RH WIND       PRES   REMARKS
SPRINGFIELD    MOSUNNY   79  69  71 NW10      29.93S
6HR MIN TEMP:  69; 6HR MAX TEMP:  79; 6HR PCP:  0.84;

JOPLIN         MOSUNNY   82  70  66 VRB3      29.91F
6HR MIN TEMP:  70; 6HR MAX TEMP:  83;


$$
MOZ032>034-039>042-045>050-055>058-069>072-031900-
...CENTRAL MISSOURI...

CITY           SKY/WX    TMP DP  RH WIND       PRES   REMARKS
COLUMBIA       SUNNY     79  59  50 NE6       29.96S
6HR MIN TEMP:  66; 6HR MAX TEMP:  79;

JEFFERSON CITY SUNNY     79  52  38 N3        29.94S
6HR MIN TEMP:  67; 6HR MAX TEMP:  79;

ROLLA          PTSUNNY   76  60  57 N8        29.94F
6HR MIN TEMP:  65; 6HR MAX TEMP:  77;

SEDALIA        SUNNY     78  62  57 NE9       29.97S
6HR MIN TEMP:  67; 6HR MAX TEMP:  78;

WHITEMAN AFB   PTSUNNY   77  64  65 NE7       29.95S
OSAGE BEACH    CLOUDY    75  64  69 NE12      29.94F

$$
MOZ051-052-059>065-031900-
...EAST CENTRAL MISSOURI...

CITY           SKY/WX    TMP DP  RH WIND       PRES   REMARKS
ST LOUIS INTL  PTSUNNY   80  66  62 N8        29.93S
6HR MIN TEMP:  68; 6HR MAX TEMP:  80;

SPIRIT OF STL  MOSUNNY   79  66  64 NE7       29.91F
6HR MIN TEMP:  68; 6HR MAX TEMP:  79;

ST CHARLES     MOSUNNY   78  67  68 N9        29.92F
6HR MIN TEMP:  66; 6HR MAX TEMP:  79;


$$
MOZ072>076-082>087-097>100-106>115-031900-
...SOUTH CENTRAL AND SOUTHEAST MISSOURI...

CITY           SKY/WX    TMP DP  RH WIND       PRES   REMARKS
CAPE GIRARDEAU PTSUNNY   80  70  71 W8        29.90S
6HR MIN TEMP:  70; 6HR MAX TEMP:  80;

FARMINGTON     CLOUDY    75  64  69 NW6       29.97S
6HR MIN TEMP:  66; 6HR MAX TEMP:  75;

POPLAR BLUFF   CLOUDY    78  69  73 SW6       29.91S
6HR MIN TEMP:  71; 6HR MAX TEMP:  79;

WEST PLAINS    PTSUNNY   74  67  78 E6        29.95F
6HR MIN TEMP:  70; 6HR MAX TEMP:  76;


$$



USA.gov is the U.S. government's official web portal to all federal, state and local government web resources and services.